This demonstration page uses our WeatherBlox Daily Observations layout. Learn more.

Left ArrowRight Arrow

39.12711, -84.51439

Hourly Observations for June 28, 2017

Temp ( °F °C ) Dew Point ( °F °C ) Humidity (%) Winds ( mph kmh ) Pressure ( in mb ) Visibility ( mi km ) Precip ( " mm )
12:53 am 00:53 Clear 55 12.8 54 12.2 96 96 Calm 30.14 1021 10 16 0.00 0.00
1:53 am 01:53 Clear 54 12.2 53 11.7 97 97 Calm 30.14 1021 10 16 0.00 0.00
2:53 am 02:53 Clear 53 11.7 53 11.7 100 100 Calm 30.14 1021 10 16 0.00 0.00
3:53 am 03:53 Clear 52 11.1 52 11.1 100 100 Calm 30.14 1021 10 16 0.00 0.00
4:53 am 04:53 Clear 52 11.1 52 11.1 100 100 Calm 30.14 1021 10 16 0.00 0.00
5:53 am 05:53 Clear 50 10 50 10 100 100 Calm 30.13 1020 10 16 0.00 0.00
6:01 am 06:01 Partly Cloudy with Mist and Fog 51 10.6 51 10.6 100 100 Calm 30.12 1020 5 8 0.00 0.00
6:10 am 06:10 Mostly Cloudy with Mist and Fog 52 11.1 52 11.1 100 100 Calm 30.12 1020 2 3 0.00 0.00
6:12 am 06:12 Mostly Cloudy with Mist and Fog 52 11.1 52 11.1 100 100 Calm 30.12 1020 1 1 0.00 0.00
6:14 am 06:14 Mostly Cloudy with Fog 53 11.7 53 11.7 100 100 Calm 30.12 1020 0 0 0.00 0.00
6:53 am 06:53 Mostly Cloudy with Fog 53 11.7 53 11.7 100 100 Calm 30.16 1022 1 1 0.00 0.00
7:18 am 07:18 Mostly Cloudy with Fog 54 12.2 54 12.2 100 100 Calm 30.15 1021 0 0 0.00 0.00
7:27 am 07:27 Mostly Cloudy with Mist and Fog 54 12.2 54 12.2 100 100 Calm 30.18 1022 1 2 0.00 0.00
7:30 am 07:30 Mostly Cloudy with Mist and Fog 55 12.8 55 12.8 100 100 Calm 30.18 1022 3 5 0.00 0.00
7:38 am 07:38 Partly Cloudy with Mist and Fog 55 12.8 55 12.8 100 100 Calm 30.18 1022 6 10 0.00 0.00
7:53 am 07:53 Mostly Sunny 55 12.8 55 12.8 100 100 Calm 30.17 1022 8 13 0.00 0.00
8:53 am 08:53 Sunny 61 16.1 59 15 93 93 Calm 30.18 1022 10 16 0.00 0.00
9:53 am 09:53 Sunny 68 20 58 14.4 70 70 SW 6 9 30.17 1022 10 16 0.00 0.00
10:53 am 10:53 Sunny 72 22.2 57 13.9 59 59 S 9 15 30.17 1022 10 16 0.00 0.00
11:53 am 11:53 Sunny 75 23.9 56 13.3 52 52 S 10 17 30.16 1021 10 16 0.00 0.00
12:53 pm 12:53 Sunny 76 24.4 57 13.9 52 52 SSW 9 15 30.15 1021 10 16 0.00 0.00
1:53 pm 13:53 Sunny 78 25.6 56 13.3 47 47 S 9 15 30.14 1021 10 16 0.00 0.00
2:53 pm 14:53 Sunny 79 26.1 57 13.9 47 47 S 10 17 30.10 1019 10 16 0.00 0.00
3:53 pm 15:53 Sunny 79 26.1 58 14.4 49 49 S 9 15 30.08 1019 10 16 0.00 0.00
4:53 pm 16:53 Sunny 78 25.6 57 13.9 48 48 SSW 10 17 30.06 1018 10 16 0.00 0.00
5:53 pm 17:53 Sunny 79 26.1 57 13.9 47 47 S 10 17 30.04 1017 10 16 0.00 0.00
6:53 pm 18:53 Sunny 78 25.6 56 13.3 47 47 S 13 20 30.02 1017 10 16 0.00 0.00
7:53 pm 19:53 Sunny 75 23.9 57 13.9 54 54 S 9 15 30.02 1017 10 16 0.00 0.00
8:53 pm 20:53 Sunny 70 21.1 61 16.1 73 73 SSE 6 9 30.01 1016 10 16 0.00 0.00
9:53 pm 21:53 Clear 71 21.7 59 15 66 66 SW 3 6 30.00 1016 10 16 0.00 0.00
10:53 pm 22:53 Clear 65 18.3 60 15.6 84 84 Calm 30.02 1017 10 16 0.00 0.00
11:53 pm 23:53 Clear 64 17.8 60 15.6 87 87 Calm 30.03 1017 10 16 0.00 0.00

Powered by AerisWeather